Weather History for Cumberland, WI

Change the Weather History Date:

Friday, February 1, 2013

  Actual Average (KRPD) Record (KRPD)
Temperature  
Mean Temperature -10 °F -  
Max Temperature 0 °F 24 °F 35 °F (2005)
Min Temperature -20 °F 8 °F -16 °F (2013)
Degree Days  
Heating Degree Days 75    
Moisture  
Dew Point -16 °F    
Average Humidity 69    
Maximum Humidity 78    
Minimum Humidity 55    
Precipitation  
Precipitation 0.00 in - - ()
Sea Level Pressure  
Sea Level Pressure 30.13 in    
Wind  
Wind Speed 7 mph (WSW)    
Max Wind Speed 13 mph    
Max Gust Speed 21 mph    
Visibility 9 miles    
Events Snow    
Averages and records for this station are not official NWS values.
T = Trace of Precipitation, MM = Missing Value Source: NWS Daily Summary

Daily Weather History Graph

Daily Weather History Graph

Search for Another Location

Airport:

Trip Planner

Search our weather history database for the weather conditions in past years. The results will help you decide how hot, cold, wet, or windy it might be!

Date:

Astronomy

Feb. 01, 2013 Rise Set
Actual Time 7:28 AM CST 5:15 PM CST
Civil Twilight 6:57 AM CST 5:46 PM CST
Nautical Twilight 6:21 AM CST 6:22 PM CST
Astronomical Twilight 5:46 AM CST 6:56 PM CST
Moon 11:44 PM CST (2/1) 9:42 AM CST (2/1)
Length of Visible Light 10h 49m
Length of Day
9h 46m
Waning Gibbous, 70% of the Moon is Illuminated
Feb 1
Waning Gibbous
Feb 3
Last Quarter
Feb 10
New
Feb 17
First Quarter
Feb 25
Full

Hourly Weather History & Observations

Time (CST) Temp. Windchill Dew Point Humidity Pressure Visibility Wind Dir Wind Speed Gust Speed Precip Events Conditions
12:15 AM -7.6 °F -23.4 °F -14.8 °F 71% 30.13 in 10.0 mi WNW 8.1 mph 20.7 mph N/A   Clear
12:35 AM -7.6 °F -27.5 °F -16.6 °F 65% 30.14 in 10.0 mi WNW 12.7 mph - N/A   Clear
1:15 AM -9.4 °F -27.9 °F -18.4 °F 65% 30.14 in 10.0 mi WNW 10.4 mph - N/A   Clear
1:35 AM -11.2 °F -32.1 °F -18.4 °F 70% 30.15 in 10.0 mi WNW 12.7 mph - N/A   Clear
1:55 AM -11.2 °F -32.1 °F -18.4 °F 70% 30.16 in 10.0 mi WNW 12.7 mph - N/A   Clear
2:15 AM -11.2 °F -31.1 °F -18.4 °F 70% 30.17 in 10.0 mi WNW 11.5 mph - N/A   Clear
2:35 AM -13.0 °F -32.4 °F -20.2 °F 70% 30.17 in 10.0 mi WNW 10.4 mph - N/A   Clear
2:55 AM -13.0 °F -33.4 °F -20.2 °F 70% 30.17 in 10.0 mi WNW 11.5 mph - N/A   Clear
3:15 AM -13.0 °F -32.4 °F -22.0 °F 64% 30.17 in 10.0 mi WNW 10.4 mph - N/A   Clear
3:35 AM -14.8 °F -32.2 °F -22.0 °F 70% 30.17 in 10.0 mi WNW 8.1 mph - N/A   Clear
4:15 AM -14.8 °F -32.2 °F -22.0 °F 70% 30.19 in 10.0 mi West 8.1 mph - N/A   Clear
4:35 AM -14.8 °F -29.1 °F -22.0 °F 70% 30.18 in 10.0 mi West 5.8 mph - N/A   Clear
5:15 AM -14.8 °F -24.8 °F -22.0 °F 70% 30.18 in 10.0 mi WSW 3.5 mph - N/A   Clear
5:35 AM -16.6 °F -31.3 °F -23.8 °F 70% 30.19 in 10.0 mi WSW 5.8 mph - N/A   Clear
5:55 AM -16.6 °F -31.3 °F -23.8 °F 70% 30.20 in 10.0 mi WSW 5.8 mph - N/A   Clear
6:15 AM -18.4 °F -33.4 °F -23.8 °F 76% 30.20 in 10.0 mi West 5.8 mph - N/A   Clear
6:35 AM -18.4 °F -35.1 °F -23.8 °F 76% 30.20 in 10.0 mi West 6.9 mph - N/A   Clear
7:15 AM -20.2 °F -38.8 °F -25.6 °F 76% 30.21 in 10.0 mi West 8.1 mph - N/A   Clear
7:35 AM -20.2 °F -37.3 °F -25.6 °F 76% 30.21 in 10.0 mi West 6.9 mph - N/A   Clear
7:55 AM -20.2 °F -37.3 °F -25.6 °F 76% 30.21 in 10.0 mi West 6.9 mph - N/A   Clear
8:15 AM -18.4 °F -35.1 °F -25.6 °F 70% 30.21 in 10.0 mi West 6.9 mph - N/A   Clear
8:35 AM -18.4 °F -33.4 °F -23.8 °F 76% 30.20 in 10.0 mi West 5.8 mph - N/A   Clear
8:55 AM -16.6 °F -31.3 °F -23.8 °F 70% 30.20 in 10.0 mi West 5.8 mph - N/A   Clear
9:15 AM -14.8 °F -27.2 °F -22.0 °F 70% 30.20 in 10.0 mi West 4.6 mph - N/A   Clear
9:35 AM -14.8 °F -27.2 °F -22.0 °F 70% 30.20 in 10.0 mi West 4.6 mph - N/A   Clear
9:55 AM -13.0 °F -25.1 °F -22.0 °F 64% 30.19 in 10.0 mi West 4.6 mph - N/A   Clear
10:15 AM -13.0 °F -22.7 °F -20.2 °F 70% 30.19 in 10.0 mi WSW 3.5 mph - N/A   Clear
10:35 AM -11.2 °F -23.0 °F -20.2 °F 64% 30.19 in 10.0 mi West 4.6 mph - N/A   Clear
10:55 AM -9.4 °F -22.7 °F -20.2 °F 59% 30.19 in 10.0 mi WSW 5.8 mph - N/A   Clear
11:15 AM -9.4 °F -20.9 °F -20.2 °F 59% 30.17 in 10.0 mi West 4.6 mph - N/A   Clear
11:35 AM -7.6 °F -18.8 °F -18.4 °F 59% 30.17 in 10.0 mi SW 4.6 mph - N/A   Clear
11:55 AM -7.6 °F -23.4 °F -18.4 °F 59% 30.16 in 10.0 mi West 8.1 mph - N/A   Clear
12:15 PM -7.6 °F -18.8 °F -18.4 °F 59% 30.16 in 10.0 mi SW 4.6 mph - N/A   Clear
12:35 PM -5.8 °F -18.4 °F -18.4 °F 55% 30.16 in 10.0 mi South 5.8 mph - N/A   Clear
1:15 PM -5.8 °F -19.9 °F -18.4 °F 55% 30.14 in 10.0 mi SSW 6.9 mph - N/A   Clear
1:35 PM -5.8 °F -22.4 °F -16.6 °F 60% 30.13 in 10.0 mi SSW 9.2 mph - N/A   Clear
2:15 PM -4.0 °F -19.0 °F -16.6 °F 55% 30.11 in 10.0 mi South 8.1 mph - N/A   Mostly Cloudy
2:35 PM -4.0 °F -19.0 °F -16.6 °F 55% 30.11 in 10.0 mi SSW 8.1 mph - N/A   Overcast
2:55 PM -5.8 °F -23.4 °F -16.6 °F 60% 30.11 in 10.0 mi SSW 10.4 mph - N/A   Overcast
3:15 PM -4.0 °F -22.1 °F -14.8 °F 60% 30.10 in 10.0 mi SSW 11.5 mph - N/A   Overcast
3:35 PM -4.0 °F -19.0 °F -14.8 °F 60% 30.10 in 10.0 mi SSW 8.1 mph - N/A   Overcast
3:55 PM -4.0 °F -17.8 °F -14.8 °F 60% 30.09 in 10.0 mi SSW 6.9 mph - N/A   Overcast
4:15 PM -4.0 °F -16.3 °F -14.8 °F 60% 30.08 in 10.0 mi SW 5.8 mph - N/A   Overcast
4:35 PM -4.0 °F -17.8 °F -14.8 °F 60% 30.08 in 10.0 mi SW 6.9 mph - N/A   Overcast
4:55 PM -4.0 °F -16.3 °F -13.0 °F 65% 30.08 in 5.0 mi SSW 5.8 mph - N/A   Haze
5:15 PM -4.0 °F -16.3 °F -13.0 °F 65% 30.08 in 10.0 mi SSW 5.8 mph - N/A   Overcast
5:35 PM -4.0 °F -12.4 °F -13.0 °F 65% 30.08 in 5.0 mi SSW 3.5 mph - N/A   Haze
5:55 PM -4.0 °F -16.3 °F -13.0 °F 65% 30.07 in 5.0 mi SSW 5.8 mph - N/A Snow Light Snow
6:15 PM -4.0 °F -14.6 °F -11.2 °F 71% 30.07 in 5.0 mi SSW 4.6 mph - N/A Snow Light Snow
6:35 PM -2.2 °F -12.5 °F -9.4 °F 71% 30.07 in 5.0 mi SSW 4.6 mph - N/A Snow Light Snow
6:55 PM -2.2 °F -12.5 °F -9.4 °F 71% 30.06 in 5.0 mi South 4.6 mph - N/A Snow Light Snow
7:15 PM -2.2 °F -12.5 °F -9.4 °F 71% 30.06 in 4.0 mi South 4.6 mph - N/A Snow Light Snow
7:35 PM -2.2 °F -12.5 °F -7.6 °F 78% 30.06 in 4.0 mi South 4.6 mph - N/A Snow Light Snow
7:55 PM -2.2 °F - -7.6 °F 78% 30.06 in 4.0 mi Calm Calm - N/A Snow Light Snow
8:15 PM -2.2 °F - -7.6 °F 78% 30.06 in 3.0 mi Calm Calm - N/A Snow Light Snow
8:35 PM -2.2 °F - -7.6 °F 78% 30.06 in 4.0 mi Calm Calm - N/A Snow Light Snow
8:55 PM -2.2 °F - -7.6 °F 78% 30.06 in 4.0 mi Calm Calm - N/A Snow Light Snow
9:15 PM -2.2 °F -10.4 °F -7.6 °F 78% 30.06 in 2.5 mi East 3.5 mph - N/A Snow Light Snow
9:35 PM -2.2 °F -10.4 °F -7.6 °F 78% 30.05 in 3.0 mi East 3.5 mph - N/A Snow Light Snow
9:55 PM -2.2 °F -12.5 °F -7.6 °F 78% 30.05 in 7.0 mi East 4.6 mph - N/A Snow Light Snow
10:15 PM -2.2 °F -12.5 °F -7.6 °F 78% 30.04 in 7.0 mi ENE 4.6 mph - N/A Snow Light Snow
10:35 PM -2.2 °F -10.4 °F -7.6 °F 78% 30.03 in 10.0 mi East 3.5 mph - N/A Snow Light Snow
10:55 PM -2.2 °F -12.5 °F -7.6 °F 78% 30.03 in 10.0 mi East 4.6 mph - N/A Snow Light Snow
11:15 PM -2.2 °F -12.5 °F -7.6 °F 78% 30.03 in 7.0 mi East 4.6 mph - N/A Snow Light Snow
11:35 PM -0.4 °F -8.3 °F -7.6 °F 72% 30.03 in 10.0 mi East 3.5 mph - N/A Snow Light Snow
11:55 PM -0.4 °F - -5.8 °F 78% 30.03 in 10.0 mi Calm Calm - N/A   Overcast